[[{"header":{"parameterUnit":"m.s-1","parameterCategory":1,"la1":30.2991,"la2":30.254,"lo1":-89.0895,"lo2":-89.0444,"dy":0.0017,"dx":0.0017,"nx":28,"ny":28,"refTime":"2024-09-03T09:00:00:Z","depth":0,"parameterNumber":2,"parameterNumberName":"U-component_of_WINDS"},"data":[0,0,0,0,0,0,0,0,0,0,0,0,0,0,0,0,0,0,0,0,0,0,0,0,0,0,0,0,0,0,0,0,0,0,0,0,0,0,0,0,0,0,0,0,0,0,0,0,0,0,0,0,0,0,0,0,0,0,-3.46,-3.46,0,-3.4608,-3.4609,-3.4609,-3.4529,-3.4527,-3.4525,-3.4522,-3.4532,-3.4534,-3.4537,0,0,0,0,0,0,0,0,0,0,0,0,0,-3.4517,-3.4519,-3.46,-3.46,-3.46,-3.4608,-3.4609,-3.4609,-3.4529,-3.4527,-3.4524,-3.4521,-3.4531,-3.4534,-3.4537,0,0,0,0,0,0,0,0,0,0,0,0,0,-3.4542,-3.452,-3.46,-3.4562,-3.4558,-3.4608,-3.4609,-3.4609,-3.453,-3.4527,-3.4523,-3.452,-3.4531,-3.4534,-3.4537,-3.4625,0,0,-3.4548,-3.4549,0,0,0,0,0,0,0,0,-3.4541,-3.4545,-3.4567,-3.4564,-3.4561,-3.4564,-3.4583,-3.4614,-3.4531,-3.4541,-3.4522,-3.4519,-3.4546,-3.4548,-3.4557,-3.4625,-3.4626,-3.4548,-3.455,-3.4552,-3.4553,0,0,0,0,0,0,0,-3.4539,-3.4544,-3.4603,-3.4568,-3.4564,-3.4545,-3.4544,-3.4588,-3.4562,-3.454,-3.4534,-3.4536,-3.4543,-3.4553,-3.4556,-3.4626,-3.4548,-3.4551,-3.4553,-3.4555,-3.4769,-3.4772,0,0,0,0,0,0,-3.4542,-3.4544,-3.4603,-3.4604,-3.4542,-3.4549,-3.4549,-3.4567,-3.4561,-3.4557,-3.4539,-3.4532,-3.4549,-3.4552,-3.4556,-3.466,-3.4552,-3.4555,-3.4557,-3.4765,-3.4769,-3.4773,0,0,0,0,0,0,-3.4541,-3.4548,-3.4603,-3.4572,-3.4577,-3.4554,-3.4574,-3.4568,-3.4578,-3.456,-3.4555,-3.4554,-3.4547,-3.4551,-3.4609,-3.4659,-3.4557,-3.456,-3.4761,-3.4766,-3.4771,-3.4866,0,0,0,0,0,0,-3.4539,-3.4548,-3.4581,-3.4573,-3.4579,-3.4655,-3.4577,-3.4571,-3.4584,-3.4576,-3.4573,-3.457,-3.4544,-3.4604,-3.4612,-3.4662,-3.4563,-3.4756,-3.4763,-3.477,-3.4859,-3.4874,-3.4888,0,0,0,0,0,-3.4536,-3.4607,-3.4583,-3.4591,-3.462,-3.4658,-3.4661,-3.4631,-3.4589,-3.4622,-3.461,-3.457,-3.4652,-3.4611,-3.4619,-3.467,-3.4753,-3.4761,-3.4769,-3.4852,-3.4871,-3.4888,0,0,0,0,0,0,-3.4622,-3.4606,-3.4579,-3.4649,-3.4656,-3.4644,-3.4685,-3.4652,-3.467,-3.4662,-3.4623,-3.4623,-3.4687,-3.4684,-3.4639,-3.4756,-3.4695,-3.4705,-3.4755,-3.4773,-3.4788,-3.4788,-3.4565,0,0,0,0,0,-3.4649,-3.4681,-3.4665,-3.4729,-3.4734,-3.4709,-3.4725,-3.47,-3.4706,-3.4708,-3.47,-3.4707,-3.4735,-3.4754,-3.4778,-3.4858,-3.4857,-3.4897,-3.4912,-3.4924,-3.4934,-3.4977,-3.4995,-3.48,-3.48,-3.48,0,0,-3.4705,-3.47,-3.4723,-3.4746,-3.4748,-3.4783,-3.4712,-3.4751,-3.4777,-3.4714,-3.4768,-3.4763,-3.4768,-3.4838,-3.4868,-3.4837,-3.4987,-3.4934,-3.4944,-3.4947,-3.4987,-3.5006,-3.5022,-3.4805,-3.4804,-3.4804,0,0,-3.4826,-3.4825,-3.4878,-3.4882,-3.4886,-3.487,-3.4883,-3.4877,-3.4871,-3.4925,-3.4878,-3.4909,-3.4956,-3.4962,-3.4972,-3.5096,-3.506,-3.5105,-3.5181,-3.5224,-3.524,-3.5253,-3.5299,-3.5315,-3.5114,-3.5114,-3.5115,0,-3.4895,-3.4945,-3.491,-3.4954,-3.4966,-3.491,-3.4965,-3.497,-3.4982,-3.4992,-3.4958,-3.5017,-3.5017,-3.5087,-3.5118,-3.5127,-3.5141,-3.5105,-3.524,-3.5253,-3.5265,-3.5308,-3.5326,-3.512,-3.5119,-3.5119,-3.5118,0,-3.5031,-3.5067,-3.511,-3.5123,-3.514,-3.5189,-3.5162,-3.5184,-3.5158,-3.5146,-3.5202,-3.5199,-3.5223,-3.5237,-3.5213,-3.5305,-3.5286,-3.5246,-3.5185,-3.529,-3.533,-3.5346,-3.5128,-3.5126,-3.5124,-3.5123,0,0,-3.5206,-3.52,-3.5217,-3.5222,-3.5223,-3.525,-3.5297,-3.532,-3.534,-3.535,-3.5389,-3.5431,-3.5394,-3.5405,-3.5381,-3.5418,-3.5519,-3.5374,-3.5373,-3.5402,-3.5622,-3.5653,-3.5673,-3.5494,-3.5497,-3.55,-3.5622,0,-3.5325,-3.5404,-3.5374,-3.5456,-3.5489,-3.5437,-3.5478,-3.5484,-3.5473,-3.5501,-3.5489,-3.552,-3.5469,-3.5475,-3.551,-3.5499,-3.5563,-3.549,-3.5532,-3.5534,-3.5533,-3.5694,-3.5726,-3.5842,-3.5638,-3.564,-3.5642,0,-3.5474,-3.549,-3.5576,-3.5572,-3.5585,-3.5622,-3.5641,-3.5667,-3.5673,-3.5663,-3.5675,-3.5643,-3.569,-3.5628,-3.5692,-3.5643,-3.5658,-3.5656,-3.566,-3.5663,-3.5595,-3.5703,-3.5878,-3.5896,-3.5666,-3.5664,-3.5663,0,-3.5594,-3.5638,-3.5695,-3.5701,-3.5698,-3.5726,-3.5726,-3.5728,-3.5744,-3.5761,-3.5771,-3.5793,-3.5805,-3.5824,-3.5799,-3.5756,-3.5867,-3.5803,-3.5861,-3.5862,-3.5888,-3.5887,-3.6069,-3.5896,-3.5896,-3.5895,-3.5895,0,-3.5731,-3.5785,-3.5749,-3.5785,-3.5845,-3.581,-3.5871,-3.5865,-3.5868,-3.5901,-3.5857,-3.589,-3.5855,-3.5884,-3.5865,-3.5922,-3.5928,-3.5922,-3.5916,-3.5926,-3.5927,-3.5937,-3.5928,-3.59,-3.5899,-3.5898,-3.5897,0,-3.5876,-3.5854,-3.5913,-3.5905,-3.5905,-3.5949,-3.5943,-3.5976,-3.5962,-3.6006,-3.6014,-3.5993,-3.6026,-3.6003,-3.6035,-3.6022,-3.6098,-3.608,-3.6096,-3.6092,-3.6152,-3.6147,-3.6348,-3.6373,-3.6182,-3.6184,-3.6186,0,-3.5965,-3.6006,-3.6003,-3.6022,-3.6025,-3.6057,-3.6073,-3.6041,-3.606,-3.607,-3.6102,-3.6131,-3.6152,-3.6207,-3.6196,-3.6221,-3.6204,-3.6273,-3.6208,-3.6217,-3.6207,-3.6206,-3.621,-3.6287,-3.6289,-3.6291,-3.6292,0,-3.6126,-3.6113,-3.6138,-3.616,-3.618,-3.6196,-3.6208,-3.6227,-3.6194,-3.6218,-3.6251,-3.6268,-3.6301,-3.6331,-3.6352,-3.6353,-3.6318,-3.6313,-3.6328,-3.6339,-3.6347,-3.6345,-3.6133,-3.6308,-3.6307,-3.6306,-3.6305,-3.6304,-3.6246,-3.6281,-3.6284,-3.6314,-3.632,-3.6332,-3.6363,-3.6354,-3.6381,-3.6405,-3.6385,-3.6425,-3.643,-3.6455,-3.646,-3.6491,-3.6463,-3.6485,-3.649,-3.6497,-3.6506,-3.6341,-3.6495,-3.6494,-3.6494,-3.6493,-3.6493,0,-3.6406,-3.6406,-3.6433,-3.6452,-3.6476,-3.644,-3.6452,-3.6474,-3.651,-3.6518,-3.654,-3.6579,-3.6608,-3.6599,-3.6625,-3.6652,-3.6637,-3.666,-3.6659,-3.666,-3.6529,-3.6514,-3.6672,-3.6672,-3.6672,-3.6672,-3.6672,-3.6672,-3.6492,-3.6549,-3.6537,-3.6597,-3.6596,-3.6635,-3.6645,-3.6657,-3.6663,-3.6708,-3.6732,-3.6726,-3.6727,-3.6753,-3.6779,-3.6775,-3.6788,-3.6817,-3.6808,-3.6686,-3.6669,-3.6652,-3.6638,-3.682,-3.682,-3.6937,-3.6938,-3.6939]},{"header":{"parameterUnit":"m.s-1","parameterCategory":1,"la1":30.2991,"la2":30.254,"lo1":-89.0895,"lo2":-89.0444,"dy":0.0017,"dx":0.0017,"nx":28,"ny":28,"refTime":"2024-09-03T09:00:00:Z","depth":0,"parameterNumber":3,"parameterNumberName":"V-component_of_WINDS"},"data":[0,0,0,0,0,0,0,0,0,0,0,0,0,0,0,0,0,0,0,0,0,0,0,0,0,0,0,0,0,0,0,0,0,0,0,0,0,0,0,0,0,0,0,0,0,0,0,0,0,0,0,0,0,0,0,0,0,0,-1.6953,-1.6952,0,-1.688,-1.6879,-1.6878,-1.6816,-1.6816,-1.6815,-1.6814,-1.6736,-1.6735,-1.6733,0,0,0,0,0,0,0,0,0,0,0,0,0,-1.7037,-1.7036,-1.6953,-1.6952,-1.6951,-1.688,-1.6879,-1.6878,-1.6816,-1.6816,-1.6815,-1.6814,-1.6737,-1.6735,-1.6733,0,0,0,0,0,0,0,0,0,0,0,0,0,-1.6986,-1.7035,-1.6953,-1.6912,-1.6908,-1.688,-1.6879,-1.6878,-1.6817,-1.6816,-1.6815,-1.6814,-1.6737,-1.6735,-1.6733,-1.674,0,0,-1.6726,-1.6725,0,0,0,0,0,0,0,0,-1.6989,-1.6983,-1.6919,-1.6915,-1.691,-1.6856,-1.688,-1.6831,-1.6817,-1.6851,-1.6814,-1.6813,-1.6777,-1.6771,-1.676,-1.6736,-1.6733,-1.6726,-1.6725,-1.6724,-1.6723,0,0,0,0,0,0,0,-1.6992,-1.6985,-1.6924,-1.6918,-1.6913,-1.6896,-1.6888,-1.687,-1.682,-1.6848,-1.6843,-1.6836,-1.6774,-1.6762,-1.6757,-1.6732,-1.6726,-1.6724,-1.6723,-1.6722,-1.6708,-1.6709,0,0,0,0,0,0,-1.7003,-1.6989,-1.6926,-1.6922,-1.6948,-1.6896,-1.6886,-1.6874,-1.682,-1.6811,-1.6837,-1.6833,-1.6766,-1.676,-1.6754,-1.6758,-1.6724,-1.6722,-1.6721,-1.6707,-1.6709,-1.671,0,0,0,0,0,0,-1.7005,-1.6998,-1.6929,-1.6954,-1.6944,-1.6895,-1.6882,-1.6874,-1.6861,-1.6812,-1.6802,-1.6834,-1.6765,-1.6757,-1.6744,-1.6755,-1.6721,-1.6719,-1.6706,-1.6708,-1.6709,-1.6766,0,0,0,0,0,0,-1.7007,-1.6999,-1.7002,-1.6955,-1.6943,-1.6921,-1.6883,-1.6873,-1.6858,-1.6853,-1.6806,-1.6798,-1.6764,-1.6747,-1.6742,-1.6751,-1.6717,-1.6705,-1.6707,-1.6709,-1.6763,-1.677,-1.6775,0,0,0,0,0,-1.701,-1.702,-1.7002,-1.6995,-1.6946,-1.6922,-1.6915,-1.6877,-1.6859,-1.6861,-1.6829,-1.6799,-1.6754,-1.6747,-1.6739,-1.6748,-1.6704,-1.6706,-1.6708,-1.6761,-1.6768,-1.6775,0,0,0,0,0,0,-1.7069,-1.7013,-1.6993,-1.6988,-1.696,-1.6912,-1.6913,-1.6886,-1.6862,-1.6858,-1.681,-1.68,-1.6792,-1.6768,-1.6761,-1.6751,-1.6725,-1.6726,-1.6767,-1.6774,-1.678,-1.6786,-1.6715,0,0,0,0,0,-1.7082,-1.7068,-1.702,-1.702,-1.7007,-1.6963,-1.6951,-1.6924,-1.6893,-1.688,-1.6847,-1.6818,-1.6797,-1.6784,-1.6762,-1.6759,-1.6748,-1.6762,-1.6768,-1.6773,-1.6774,-1.677,-1.6776,-1.6716,-1.6716,-1.6716,0,0,-1.7107,-1.7075,-1.7069,-1.7031,-1.7006,-1.6992,-1.6953,-1.694,-1.6929,-1.6878,-1.6864,-1.6838,-1.6802,-1.6793,-1.6788,-1.6774,-1.6788,-1.6775,-1.678,-1.6778,-1.6773,-1.6779,-1.6784,-1.6718,-1.6718,-1.6717,0,0,-1.7147,-1.7121,-1.7119,-1.7095,-1.7058,-1.7028,-1.7028,-1.6983,-1.6965,-1.6949,-1.691,-1.6896,-1.6861,-1.6836,-1.6819,-1.6848,-1.682,-1.6842,-1.6873,-1.687,-1.6874,-1.6878,-1.6888,-1.6893,-1.6844,-1.6844,-1.6844,0,-1.7183,-1.7161,-1.712,-1.711,-1.7093,-1.7047,-1.7043,-1.7022,-1.698,-1.6969,-1.6954,-1.6908,-1.6881,-1.6866,-1.6873,-1.6861,-1.6858,-1.6848,-1.6877,-1.6881,-1.6884,-1.6893,-1.6897,-1.6847,-1.6846,-1.6846,-1.6846,0,-1.7207,-1.7193,-1.7195,-1.7156,-1.714,-1.7133,-1.709,-1.7078,-1.7052,-1.7023,-1.7007,-1.6972,-1.6942,-1.6936,-1.691,-1.6917,-1.691,-1.6886,-1.6859,-1.6893,-1.6901,-1.6904,-1.6851,-1.685,-1.6849,-1.6848,0,0,-1.7283,-1.7221,-1.7223,-1.7204,-1.716,-1.7148,-1.7138,-1.7109,-1.71,-1.7071,-1.7062,-1.7033,-1.701,-1.6991,-1.6962,-1.6959,-1.6984,-1.6935,-1.6934,-1.6946,-1.6989,-1.7007,-1.7012,-1.6964,-1.6965,-1.6965,-1.6992,0,-1.7316,-1.7297,-1.7259,-1.7251,-1.7237,-1.7192,-1.7183,-1.7154,-1.7127,-1.711,-1.7079,-1.7059,-1.7032,-1.702,-1.7015,-1.6982,-1.6992,-1.6979,-1.6954,-1.6953,-1.6965,-1.7016,-1.7035,-1.7063,-1.6995,-1.6995,-1.6996,0,-1.7351,-1.7327,-1.7319,-1.7275,-1.7267,-1.726,-1.723,-1.7214,-1.718,-1.716,-1.7139,-1.7106,-1.7092,-1.7067,-1.7046,-1.7038,-1.7025,-1.7007,-1.7007,-1.7004,-1.6977,-1.7014,-1.7071,-1.7075,-1.7,-1.7,-1.6999,0,-1.7408,-1.7372,-1.7363,-1.7348,-1.7297,-1.7293,-1.7271,-1.7236,-1.722,-1.7194,-1.7183,-1.7155,-1.714,-1.7118,-1.7078,-1.7063,-1.7061,-1.7033,-1.7044,-1.7045,-1.7046,-1.7047,-1.7102,-1.7037,-1.7037,-1.7037,-1.7037,0,-1.7448,-1.7445,-1.7387,-1.7381,-1.7375,-1.7331,-1.7326,-1.73,-1.7269,-1.7256,-1.7215,-1.7203,-1.7151,-1.7133,-1.7102,-1.7089,-1.7082,-1.7065,-1.7057,-1.7069,-1.7072,-1.7061,-1.7058,-1.7038,-1.7038,-1.7038,-1.7038,0,-1.7511,-1.7472,-1.7458,-1.7411,-1.7398,-1.7396,-1.7355,-1.7346,-1.7316,-1.7301,-1.7294,-1.7247,-1.7223,-1.7181,-1.7146,-1.7124,-1.7118,-1.7104,-1.713,-1.7125,-1.7139,-1.7138,-1.7189,-1.7193,-1.7126,-1.7127,-1.7128,0,-1.754,-1.7536,-1.7488,-1.7477,-1.7457,-1.7439,-1.7424,-1.7379,-1.7365,-1.7325,-1.7321,-1.7295,-1.7272,-1.7236,-1.7198,-1.717,-1.7155,-1.7174,-1.715,-1.7163,-1.7155,-1.7156,-1.7155,-1.718,-1.7181,-1.7182,-1.7182,0,-1.7595,-1.7576,-1.7556,-1.7529,-1.7511,-1.7488,-1.7461,-1.7454,-1.7404,-1.7389,-1.7365,-1.7347,-1.7311,-1.7285,-1.7252,-1.7227,-1.7196,-1.719,-1.7191,-1.7204,-1.722,-1.7212,-1.7146,-1.7189,-1.7189,-1.7188,-1.7188,-1.7188,-1.7642,-1.7636,-1.7602,-1.758,-1.7556,-1.7532,-1.7522,-1.7491,-1.747,-1.7438,-1.7413,-1.7391,-1.7355,-1.7307,-1.7285,-1.7266,-1.7252,-1.7253,-1.7254,-1.7255,-1.726,-1.7222,-1.726,-1.7259,-1.7259,-1.7259,-1.7259,0,-1.7695,-1.767,-1.7651,-1.7616,-1.7599,-1.7572,-1.7541,-1.7528,-1.751,-1.748,-1.7458,-1.743,-1.7404,-1.7363,-1.7334,-1.7327,-1.7312,-1.732,-1.7321,-1.7316,-1.7274,-1.7276,-1.7333,-1.7333,-1.7333,-1.7333,-1.7333,-1.7333,-1.7721,-1.771,-1.7687,-1.7663,-1.7638,-1.7617,-1.7602,-1.7579,-1.7555,-1.7526,-1.7505,-1.7478,-1.7443,-1.7411,-1.7386,-1.7374,-1.7365,-1.7379,-1.7363,-1.7325,-1.7319,-1.7312,-1.7314,-1.7377,-1.7377,-1.7406,-1.7406,-1.7406]}]]